Change the Weather History Date:

Thursday, May 16, 2013

  Actual Average Record
Temperature  
Mean Temperature 66 °F -  
Max Temperature 82 °F 68 °F 88 °F (1962)
Min Temperature 49 °F 44 °F 26 °F (1984)
Growing Degree Days 16 (Base 50)    
Moisture  
Dew Point 41 °F    
Average Humidity 41    
Maximum Humidity 80    
Minimum Humidity 20    
Precipitation  
Precipitation 0.00 in - - ()
Sea Level Pressure  
Sea Level Pressure 29.91 in    
Wind  
Wind Speed 3 mph (NW)    
Max Wind Speed 12 mph    
Max Gust Speed 17 mph    
Visibility 10 miles    
Events      
Averages and records for this station are not official NWS values.
T = Trace of Precipitation, MM = Missing Value Source: NWS Daily Summary

Daily Weather History Graph

Daily Weather History Graph

Search for Another Location

Airport or City:

Trip Planner

Search our weather history database for the weather conditions in past years. The results will help you decide how hot, cold, wet, or windy it might be!

Date:

Astronomy

May. 16, 2013 Rise Set
Actual Time 6:16 AM EDT 8:53 PM EDT
Civil Twilight 5:44 AM EDT 9:25 PM EDT
Nautical Twilight 5:04 AM EDT 10:05 PM EDT
Astronomical Twilight 4:19 AM EDT 10:50 PM EDT
Moon 11:51 AM EDT (5/16) 1:12 AM EDT (5/16)
Length of Visible Light 15h 40m
Length of Day
14h 36m
Waxing Crescent, 35% of the Moon is Illuminated
May 16
Waxing Crescent
May 18
First Quarter
May 25
Full
May 31
Last Quarter
Jun 8
New

Hourly Weather History & Observations

Time (EDT) Temp. Dew Point Humidity Pressure Visibility Wind Dir Wind Speed Gust Speed Precip Events Conditions
12:14 AM 63.7 °F 36.5 °F 36% 29.82 in 10.0 mi NNW 5.8 mph - N/A   Clear
12:55 AM 59.7 °F 37.9 °F 44% 29.83 in 10.0 mi NNW 5.8 mph - N/A   Clear
1:14 AM 59.9 °F 37.8 °F 44% 29.83 in 10.0 mi NW 3.5 mph - N/A   Clear
1:35 AM 60.1 °F 37.9 °F 44% 29.84 in 10.0 mi Calm Calm - N/A   Clear
1:54 AM 59.7 °F 37.8 °F 44% 29.83 in 10.0 mi Calm Calm - N/A   Clear
2:15 AM 58.3 °F 37.6 °F 46% 29.83 in 10.0 mi Calm Calm - N/A   Clear
2:35 AM 55.8 °F 38.1 °F 52% 29.83 in 10.0 mi Calm Calm - N/A   Clear
2:54 AM 52.2 °F 40.3 °F 64% 29.83 in 10.0 mi Calm Calm - N/A   Clear
3:15 AM 51.1 °F 40.5 °F 67% 29.84 in 10.0 mi Calm Calm - N/A   Clear
3:35 AM 50.5 °F 40.6 °F 69% 29.85 in 10.0 mi South 3.5 mph - N/A   Clear
3:54 AM 51.8 °F 44.4 °F 76% 29.86 in 10.0 mi South 3.5 mph - N/A   Clear
4:15 AM 53.2 °F 43.0 °F 68% 29.87 in 10.0 mi Calm Calm - N/A   Clear
4:34 AM 53.2 °F 42.6 °F 67% 29.88 in 10.0 mi Calm Calm - N/A   Clear
4:54 AM 54.9 °F 41.2 °F 60% 29.88 in 10.0 mi Calm Calm - N/A   Clear
5:15 AM 54.7 °F 40.8 °F 60% 29.88 in 10.0 mi Calm Calm - N/A   Clear
5:34 AM 51.6 °F 41.2 °F 68% 29.88 in 10.0 mi Calm Calm - N/A   Clear
5:54 AM 50.5 °F 42.4 °F 74% 29.87 in 10.0 mi Calm Calm - N/A   Clear
6:15 AM 49.3 °F 43.3 °F 80% 29.88 in 10.0 mi Calm Calm - N/A   Clear
6:34 AM 50.5 °F 43.3 °F 76% 29.89 in 10.0 mi Calm Calm - N/A   Clear
6:54 AM 50.2 °F 42.8 °F 76% 29.88 in 10.0 mi Calm Calm - N/A   Clear
7:15 AM 53.1 °F 44.4 °F 72% 29.89 in 10.0 mi Calm Calm - N/A   Clear
7:34 AM 55.0 °F 45.1 °F 69% 29.90 in 10.0 mi Calm Calm - N/A   Clear
7:55 AM 60.3 °F 43.2 °F 53% 29.90 in 10.0 mi WNW 3.5 mph - N/A   Clear
8:15 AM 61.2 °F 42.1 °F 50% 29.91 in 10.0 mi NW 3.5 mph - N/A   Clear
8:34 AM 62.1 °F 42.4 °F 49% 29.92 in 10.0 mi Calm Calm - N/A   Clear
8:55 AM 63.1 °F 43.3 °F 48% 29.92 in 10.0 mi Calm Calm - N/A   Clear
9:15 AM 64.9 °F 43.3 °F 45% 29.93 in 10.0 mi Calm Calm - N/A   Clear
9:34 AM 67.5 °F 42.3 °F 40% 29.93 in 10.0 mi West 4.6 mph - N/A   Clear
9:55 AM 70.0 °F 41.2 °F 35% 29.93 in 10.0 mi WNW 5.8 mph - N/A   Clear
10:14 AM 72.0 °F 39.7 °F 31% 29.93 in 10.0 mi WNW 9.2 mph - N/A   Clear
10:35 AM 72.7 °F 40.6 °F 31% 29.93 in 10.0 mi WNW 5.8 mph - N/A   Clear
10:55 AM 73.8 °F 41.4 °F 31% 29.93 in 10.0 mi NW 5.8 mph - N/A   Clear
11:14 AM 74.5 °F 41.5 °F 31% 29.94 in 10.0 mi WNW 4.6 mph - N/A   Clear
11:35 AM 75.2 °F 42.3 °F 31% 29.94 in 10.0 mi WNW 6.9 mph - N/A   Clear
11:54 AM 76.6 °F 41.9 °F 29% 29.94 in 10.0 mi WNW 8.1 mph - N/A   Clear
12:14 PM 77.5 °F 41.9 °F 28% 29.94 in 10.0 mi WNW 11.5 mph - N/A   Unknown
12:35 PM 77.4 °F 41.2 °F 27% 29.93 in 10.0 mi NW 8.1 mph - N/A   Unknown
12:54 PM 77.9 °F 40.8 °F 27% 29.93 in 10.0 mi NNW 5.8 mph - N/A   Unknown
1:14 PM 78.4 °F 40.8 °F 26% 29.93 in 10.0 mi NW 4.6 mph - N/A   Clear
1:35 PM 80.1 °F 38.7 °F 23% 29.92 in 10.0 mi WNW 9.2 mph - N/A   Clear
1:54 PM 79.9 °F 39.0 °F 23% 29.92 in 10.0 mi WSW 3.5 mph - N/A   Clear
2:15 PM 81.0 °F 39.2 °F 23% 29.92 in 10.0 mi West 11.5 mph - N/A   Clear
2:35 PM 81.5 °F 38.8 °F 22% 29.92 in 10.0 mi WNW 6.9 mph 17.3 mph N/A   Clear
2:54 PM 81.3 °F 39.4 °F 22% 29.92 in 10.0 mi WNW 4.6 mph - N/A   Clear
3:15 PM 80.6 °F 40.1 °F 24% 29.92 in 10.0 mi Calm Calm - N/A   Scattered Clouds
3:34 PM 82.4 °F 38.8 °F 21% 29.92 in 10.0 mi WSW 3.5 mph - N/A   Scattered Clouds
3:55 PM 81.0 °F 39.6 °F 23% 29.91 in 10.0 mi Calm Calm - N/A   Scattered Clouds
4:15 PM 82.2 °F 39.9 °F 22% 29.91 in 10.0 mi WNW 8.1 mph - N/A   Scattered Clouds
4:34 PM 80.6 °F 38.8 °F 22% 29.91 in 10.0 mi NW 11.5 mph 16.1 mph N/A   Scattered Clouds
4:55 PM 81.7 °F 38.8 °F 22% 29.91 in 10.0 mi NW 6.9 mph - N/A   Mostly Cloudy
5:15 PM 81.1 °F 38.3 °F 22% 29.91 in 10.0 mi NW 3.5 mph - N/A   Scattered Clouds
5:34 PM 82.0 °F 36.9 °F 20% 29.91 in 10.0 mi NW 6.9 mph 10.4 mph N/A   Scattered Clouds
6:14 PM 80.1 °F 38.3 °F 22% 29.91 in 10.0 mi WNW 8.1 mph - N/A   Clear
6:34 PM 77.9 °F 40.5 °F 26% 29.91 in 10.0 mi Calm Calm - N/A   Clear
6:55 PM 78.8 °F 40.3 °F 25% 29.91 in 10.0 mi NNW 4.6 mph - N/A   Scattered Clouds
7:14 PM 76.8 °F 41.2 °F 28% 29.91 in 10.0 mi NW 4.6 mph - N/A   Scattered Clouds
7:34 PM 76.6 °F 41.9 °F 29% 29.92 in 10.0 mi NW 4.6 mph - N/A   Clear
7:55 PM 76.8 °F 42.3 °F 29% 29.92 in 10.0 mi NNW 4.6 mph - N/A   Clear
8:14 PM 75.7 °F 42.3 °F 30% 29.93 in 10.0 mi Calm Calm - N/A   Clear
8:34 PM 74.3 °F 43.7 °F 33% 29.94 in 10.0 mi Calm Calm - N/A   Clear
8:55 PM 72.1 °F 43.3 °F 35% 29.95 in 10.0 mi NNW 3.5 mph - N/A   Clear
9:14 PM 70.9 °F 43.7 °F 38% 29.95 in 10.0 mi Calm Calm - N/A   Clear
9:35 PM 68.5 °F 44.2 °F 42% 29.96 in 10.0 mi Calm Calm - N/A   Clear
9:55 PM 67.5 °F 43.9 °F 43% 29.97 in 10.0 mi NNW 4.6 mph - N/A   Clear
10:14 PM 69.1 °F 44.2 °F 41% 29.98 in 10.0 mi North 3.5 mph - N/A   Clear
10:35 PM 67.5 °F 45.1 °F 45% 29.99 in 10.0 mi Calm Calm - N/A   Clear
10:55 PM 67.8 °F 44.8 °F 43% 29.98 in 10.0 mi North 3.5 mph - N/A   Clear
11:14 PM 66.7 °F 45.0 °F 45% 29.99 in 10.0 mi North 3.5 mph - N/A   Scattered Clouds
11:35 PM 65.7 °F 45.1 °F 47% 30.00 in 10.0 mi North 5.8 mph - N/A   Scattered Clouds
11:54 PM 67.3 °F 43.9 °F 43% 30.00 in 10.0 mi North 4.6 mph - N/A   Scattered Clouds